Location: Roc des P�zouls
(43.9667°N, 3.5500°E)
Time: 23:58:08
(UTC+00:00)

COBE Rocket - Pass Details

Date: 14 November 2019
Orbit: 679 x 783 km, 97.1° (Epoch: 07 December)

Event Time Altitude Azimuth Distance (km) Brightness Sun altitude
Rises 04:33:13 0° 165° (SSE) 3,256 7.5 -22.6°
Reaches altitude 10° 04:35:32 10° 165° (SSE) 2,329 6.7 -22.2°
Maximum altitude 04:40:42 87° 79° (E) 782 4.0 -21.3°
Drops below altitude 10° 04:45:50 10° 349° (N) 2,308 6.3 -20.3°
Sets 04:48:07 0° 349° (N) 3,225 7.1 -19.9°
